Wind From: 11-12-2017 12:03 Until: 12-12-2017 06:00 warning for: Wind Level: Orange info button

Power and phone distribution networks may be disrupted for relatively long periods., Roofs and chimneys can be damaged. , Tree branches may break. , Vehicles can be deported. , Traffic may be disrupted, particularly on secondary roads in forest areas. Limit your trips. , Limit your speed in highway driving, especially if you drive a vehicle or hitch sensitive to wind. , Do not go for walks in forests or along the coast., In town, be vigilant against possible falling objects., Do not work on roofs and do not touch any electrical line fallen on the ground., Store or secure sensitive objects to wind or likely to be damaged., Always install power generators outside buildings. 


Meteo18 Weather Cam more information Meteo18 Weather Cam


Thunder radar more information blitzortung!


Rain radar more information rain snow radar


Visit our other weather sites:

Template documentation
and downloads

And another site



Weather Underground History page Text

Daily Summary for February 29, 2016 Units:  Metric    English   Both
« Previous Day
Next Day »
Daily Weekly Monthly Yearly Custom
  High: Low: Average:
Temperature: 7.8 °C -0.4 °C 2.8 °C
Dew Point: 2.7 °C -3.0 °C -1 °C
Humidity: 85 % 57 % 77 %
Wind Speed: 22.5 km/h 0.0 km/h 7.2 km/h
Wind Gust: 32.2 km/h - -
Wind:- - ENE
Pressure: 1024.6 hPa 1011.7 hPa -
Precipitation: 0.0 mm    
Historical Graphs
 
 
Tabular Data for February 29, 2016
Time Temperature Dew Point Pressure Wind Wind Speed Wind Gust Humidity Rainfall Rate (Hourly)
00:02 2.2 °C -0.7 °C 1011.7 hPa ENE 4.8 km/h 20.9 km/h 81 % 0.0 mm
00:12 2.1 °C -0.8 °C 1011.7 hPa SE 9.7 km/h 20.9 km/h 81 % 0.0 mm
00:17 2.1 °C -0.8 °C 1011.7 hPa NE 8.0 km/h 20.9 km/h 81 % 0.0 mm
00:22 2.0 °C -0.9 °C 1011.7 hPa NE 6.4 km/h 20.9 km/h 81 % 0.0 mm
00:27 2.0 °C -0.9 °C 1011.7 hPa NNE 12.9 km/h 17.7 km/h 81 % 0.0 mm
00:32 2.0 °C -0.9 °C 1011.7 hPa NE 3.2 km/h 17.7 km/h 81 % 0.0 mm
00:42 2.0 °C -1.1 °C 1011.7 hPa NE 9.7 km/h 16.1 km/h 80 % 0.0 mm
00:52 2.0 °C -1.1 °C 1011.7 hPa ENE 11.3 km/h 20.9 km/h 80 % 0.0 mm
00:57 1.9 °C -1.2 °C 1011.7 hPa NE 8.0 km/h 20.9 km/h 80 % 0.0 mm
01:02 1.8 °C -1.1 °C 1011.7 hPa East 8.0 km/h 20.9 km/h 81 % 0.0 mm
01:07 1.8 °C -1.1 °C 1011.7 hPa NE 12.9 km/h 17.7 km/h 81 % 0.0 mm
01:12 1.8 °C -1.1 °C 1011.7 hPa ENE 8.0 km/h 17.7 km/h 81 % 0.0 mm
01:17 1.7 °C -1.2 °C 1011.7 hPa East 8.0 km/h 22.5 km/h 81 % 0.0 mm
01:22 1.7 °C -1.2 °C 1011.7 hPa NE 3.2 km/h 22.5 km/h 81 % 0.0 mm
01:27 1.7 °C -1.2 °C 1011.7 hPa NNE 16.1 km/h 22.5 km/h 81 % 0.0 mm
01:32 1.7 °C -1.2 °C 1011.7 hPa ESE 6.4 km/h 22.5 km/h 81 % 0.0 mm
01:37 1.7 °C -1.4 °C 1011.7 hPa NE 12.9 km/h 22.5 km/h 80 % 0.0 mm
01:42 1.7 °C -1.4 °C 1011.7 hPa NE 11.3 km/h 22.5 km/h 80 % 0.0 mm
01:47 1.7 °C -1.4 °C 1011.7 hPa ESE 8.0 km/h 22.5 km/h 80 % 0.0 mm
01:52 1.7 °C -1.4 °C 1011.7 hPa ENE 4.8 km/h 22.5 km/h 80 % 0.0 mm
01:57 1.6 °C -1.5 °C 1011.7 hPa ESE 6.4 km/h 17.7 km/h 80 % 0.0 mm
02:02 1.6 °C -1.5 °C 1011.7 hPa ESE 12.9 km/h 20.9 km/h 80 % 0.0 mm
02:07 1.6 °C -1.5 °C 1012.1 hPa ENE 9.7 km/h 20.9 km/h 80 % 0.0 mm
02:12 1.6 °C -1.5 °C 1012.1 hPa East 11.3 km/h 20.9 km/h 80 % 0.0 mm
02:17 1.6 °C -1.5 °C 1012.1 hPa ESE 4.8 km/h 24.1 km/h 80 % 0.0 mm
02:22 1.5 °C -1.6 °C 1012.1 hPa NE 14.5 km/h 24.1 km/h 80 % 0.0 mm
02:27 1.6 °C -1.5 °C 1012.1 hPa NE 11.3 km/h 20.9 km/h 80 % 0.0 mm
02:32 1.6 °C -1.5 °C 1012.4 hPa NE 17.7 km/h 20.9 km/h 80 % 0.0 mm
02:37 1.6 °C -1.5 °C 1012.4 hPa NNE 12.9 km/h 22.5 km/h 80 % 0.0 mm
02:42 1.5 °C -1.4 °C 1012.4 hPa East 3.2 km/h 22.5 km/h 81 % 0.0 mm
02:47 1.5 °C -1.6 °C 1012.4 hPa ESE 3.2 km/h 22.5 km/h 80 % 0.0 mm
02:52 1.4 °C -1.5 °C 1012.4 hPa NE 9.7 km/h 22.5 km/h 81 % 0.0 mm
02:57 1.4 °C -1.5 °C 1012.4 hPa NE 14.5 km/h 25.7 km/h 81 % 0.0 mm
03:02 1.4 °C -1.5 °C 1012.4 hPa NE 11.3 km/h 25.7 km/h 81 % 0.0 mm
03:12 1.3 °C -1.6 °C 1012.4 hPa NE 16.1 km/h 19.3 km/h 81 % 0.0 mm
03:17 1.3 °C -1.6 °C 1012.4 hPa East 22.5 km/h 22.5 km/h 81 % 0.0 mm
03:22 1.3 °C -1.6 °C 1012.1 hPa ENE 11.3 km/h 22.5 km/h 81 % 0.0 mm
03:27 1.3 °C -1.8 °C 1012.1 hPa ENE 4.8 km/h 22.5 km/h 80 % 0.0 mm
03:32 1.3 °C -1.6 °C 1012.1 hPa ENE 4.8 km/h 22.5 km/h 81 % 0.0 mm
03:42 1.3 °C -1.8 °C 1012.4 hPa NNE 6.4 km/h 22.5 km/h 80 % 0.0 mm
03:47 1.3 °C -1.8 °C 1012.4 hPa NE 4.8 km/h 22.5 km/h 80 % 0.0 mm
03:52 1.3 °C -1.8 °C 1012.4 hPa ENE 14.5 km/h 22.5 km/h 80 % 0.0 mm
03:57 1.3 °C -1.8 °C 1012.4 hPa NE 9.7 km/h 24.1 km/h 80 % 0.0 mm
04:02 1.2 °C -1.9 °C 1012.4 hPa ENE 14.5 km/h 27.4 km/h 80 % 0.0 mm
04:07 1.1 °C -1.8 °C 1012.8 hPa NNE 19.3 km/h 27.4 km/h 81 % 0.0 mm
04:12 1.0 °C -1.9 °C 1012.8 hPa NE 6.4 km/h 27.4 km/h 81 % 0.0 mm
04:17 1.0 °C -1.9 °C 1012.8 hPa East 11.3 km/h 27.4 km/h 81 % 0.0 mm
04:22 0.9 °C -2.0 °C 1012.8 hPa NE 19.3 km/h 25.7 km/h 81 % 0.0 mm
04:27 0.8 °C -2.1 °C 1012.8 hPa ENE 12.9 km/h 25.7 km/h 81 % 0.0 mm
04:32 0.8 °C -1.9 °C 1012.8 hPa NNE 17.7 km/h 25.7 km/h 82 % 0.0 mm
04:42 0.7 °C -2.0 °C 1013.1 hPa ENE 8.0 km/h 24.1 km/h 82 % 0.0 mm
04:47 0.6 °C -2.1 °C 1013.1 hPa ENE 6.4 km/h 22.5 km/h 82 % 0.0 mm
04:52 0.6 °C -2.0 °C 1013.4 hPa ESE 4.8 km/h 22.5 km/h 83 % 0.0 mm
04:57 0.5 °C -2.1 °C 1013.4 hPa SSE 8.0 km/h 22.5 km/h 83 % 0.0 mm
05:02 0.4 °C -2.1 °C 1013.4 hPa NNE 8.0 km/h 16.1 km/h 83 % 0.0 mm
05:12 0.4 °C -2.1 °C 1013.4 hPa NE 6.4 km/h 19.3 km/h 83 % 0.0 mm
05:17 0.4 °C -2.1 °C 1013.4 hPa South 4.8 km/h 19.3 km/h 83 % 0.0 mm
05:22 0.4 °C -2.1 °C 1013.4 hPa ENE 6.4 km/h 19.3 km/h 83 % 0.0 mm
05:32 0.4 °C -2.1 °C 1013.4 hPa NE 6.4 km/h 27.4 km/h 83 % 0.0 mm
05:42 0.4 °C -2.1 °C 1013.8 hPa East 6.4 km/h 27.4 km/h 83 % 0.0 mm
05:47 0.4 °C -2.1 °C 1013.8 hPa NNE 17.7 km/h 27.4 km/h 83 % 0.0 mm
05:52 0.4 °C -2.1 °C 1013.4 hPa ENE 4.8 km/h 24.1 km/h 83 % 0.0 mm
06:02 0.3 °C -2.2 °C 1013.8 hPa NNE 8.0 km/h 19.3 km/h 83 % 0.0 mm
06:12 0.2 °C -2.3 °C 1013.8 hPa NE 3.2 km/h 20.9 km/h 83 % 0.0 mm
06:17 0.2 °C -2.2 °C 1013.8 hPa SSE 8.0 km/h 20.9 km/h 84 % 0.0 mm
06:22 0.2 °C -2.3 °C 1013.8 hPa NNE 4.8 km/h 19.3 km/h 83 % 0.0 mm
06:32 0.2 °C -2.2 °C 1013.8 hPa ENE 9.7 km/h 19.3 km/h 84 % 0.0 mm
06:37 0.1 °C -2.3 °C 1013.8 hPa East 4.8 km/h 19.3 km/h 84 % 0.0 mm
06:42 0.1 °C -2.3 °C 1014.1 hPa Calm   20.9 km/h 84 % 0.0 mm
06:47 0.0 °C -2.4 °C 1014.1 hPa ENE 4.8 km/h 20.9 km/h 84 % 0.0 mm
06:57 -0.1 °C -2.5 °C 1014.4 hPa SE 1.6 km/h 22.5 km/h 84 % 0.0 mm
07:07 -0.2 °C -2.4 °C 1014.4 hPa ESE 4.8 km/h 22.5 km/h 85 % 0.0 mm
07:12 -0.2 °C -2.4 °C 1014.4 hPa NE 8.0 km/h 12.9 km/h 85 % 0.0 mm
07:17 -0.2 °C -2.4 °C 1014.4 hPa NE 8.0 km/h 12.9 km/h 85 % 0.0 mm
07:22 -0.2 °C -2.4 °C 1014.4 hPa NE 11.3 km/h 16.1 km/h 85 % 0.0 mm
07:32 -0.2 °C -2.4 °C 1014.4 hPa NE 4.8 km/h 17.7 km/h 85 % 0.0 mm
07:42 -0.1 °C -2.3 °C 1014.4 hPa East 4.8 km/h 19.3 km/h 85 % 0.0 mm
07:52 -0.1 °C -2.3 °C 1014.8 hPa SE 3.2 km/h 20.9 km/h 85 % 0.0 mm
08:02 0.2 °C -2.2 °C 1015.1 hPa NE 14.5 km/h 20.9 km/h 84 % 0.0 mm
08:12 0.3 °C -2.2 °C 1015.5 hPa East 9.7 km/h 24.1 km/h 83 % 0.0 mm
08:22 0.4 °C -2.1 °C 1015.8 hPa SE 6.4 km/h 32.2 km/h 83 % 0.0 mm
08:32 0.4 °C -2.1 °C 1015.5 hPa NNE 14.5 km/h 32.2 km/h 83 % 0.0 mm
08:37 0.4 °C -2.1 °C 1015.8 hPa ENE 8.0 km/h 32.2 km/h 83 % 0.0 mm
08:42 0.4 °C -2.0 °C 1015.8 hPa SE 3.2 km/h 22.5 km/h 84 % 0.0 mm
08:52 0.5 °C -1.9 °C 1015.8 hPa NE 11.3 km/h 24.1 km/h 84 % 0.0 mm
09:02 0.5 °C -1.9 °C 1015.8 hPa East 4.8 km/h 19.3 km/h 84 % 0.0 mm
09:12 0.6 °C -1.8 °C 1015.8 hPa ENE 4.8 km/h 22.5 km/h 84 % 0.0 mm
09:17 0.7 °C -1.7 °C 1015.8 hPa ENE 6.4 km/h 22.5 km/h 84 % 0.0 mm
09:22 0.8 °C -1.6 °C 1015.8 hPa NE 19.3 km/h 19.3 km/h 84 % 0.0 mm
09:32 0.9 °C -1.7 °C 1016.1 hPa ENE 1.6 km/h 19.3 km/h 83 % 0.0 mm
09:42 1.1 °C -1.5 °C 1016.1 hPa Calm   20.9 km/h 83 % 0.0 mm
09:47 1.2 °C -1.4 °C 1016.5 hPa ENE 9.7 km/h 20.9 km/h 83 % 0.0 mm
09:52 1.3 °C -1.3 °C 1016.5 hPa NE 9.7 km/h 19.3 km/h 83 % 0.0 mm
10:02 1.4 °C -1.2 °C 1016.8 hPa ENE 3.2 km/h 17.7 km/h 83 % 0.0 mm
10:12 1.5 °C -1.1 °C 1016.8 hPa East 9.7 km/h 22.5 km/h 83 % 0.0 mm
10:17 1.6 °C -1.1 °C 1017.2 hPa ENE 11.3 km/h 22.5 km/h 82 % 0.0 mm
10:22 1.6 °C -1.1 °C 1017.2 hPa NE 19.3 km/h 22.5 km/h 82 % 0.0 mm
10:27 1.6 °C -1.0 °C 1017.2 hPa SE 3.2 km/h 22.5 km/h 83 % 0.0 mm
10:32 1.6 °C -1.1 °C 1017.2 hPa NE 16.1 km/h 22.5 km/h 82 % 0.0 mm
10:37 1.6 °C -1.1 °C 1017.2 hPa NNE 8.0 km/h 24.1 km/h 82 % 0.0 mm
10:42 1.8 °C -0.9 °C 1017.2 hPa East 8.0 km/h 24.1 km/h 82 % 0.0 mm
10:47 1.8 °C -0.9 °C 1017.5 hPa ESE 6.4 km/h 24.1 km/h 82 % 0.0 mm
10:52 2.0 °C -0.6 °C 1017.5 hPa East 9.7 km/h 24.1 km/h 83 % 0.0 mm
10:57 2.2 °C -0.6 °C 1017.5 hPa ESE 3.2 km/h 25.7 km/h 82 % 0.0 mm
11:02 2.5 °C -0.4 °C 1017.5 hPa ENE 14.5 km/h 25.7 km/h 81 % 0.0 mm
11:07 2.9 °C -0.2 °C 1017.5 hPa ENE 19.3 km/h 25.7 km/h 80 % 0.0 mm
11:12 3.2 °C -0.1 °C 1017.5 hPa ENE 19.3 km/h 25.7 km/h 79 % 0.0 mm
11:17 3.4 °C 0.1 °C 1017.5 hPa East 9.7 km/h 27.4 km/h 79 % 0.0 mm
11:22 3.7 °C 0.2 °C 1017.5 hPa NE 17.7 km/h 27.4 km/h 78 % 0.0 mm
11:27 3.8 °C 0.3 °C 1017.5 hPa ENE 14.5 km/h 27.4 km/h 78 % 0.0 mm
11:37 3.9 °C 0.2 °C 1017.5 hPa NE 9.7 km/h 29.0 km/h 77 % 0.0 mm
11:42 4.1 °C 0.4 °C 1017.5 hPa ESE 9.7 km/h 29.0 km/h 77 % 0.0 mm
11:47 4.1 °C 0.4 °C 1017.5 hPa South 3.2 km/h 25.7 km/h 77 % 0.0 mm
11:52 4.4 °C 0.7 °C 1017.5 hPa NE 17.7 km/h 25.7 km/h 77 % 0.0 mm
11:57 4.7 °C 0.8 °C 1017.5 hPa ENE 12.9 km/h 27.4 km/h 76 % 0.0 mm
12:02 4.7 °C 0.8 °C 1017.8 hPa NNE 11.3 km/h 27.4 km/h 76 % 0.0 mm
12:12 5.0 °C 1.1 °C 1018.2 hPa NE 4.8 km/h 24.1 km/h 76 % 0.0 mm
12:17 5.3 °C 1.4 °C 1018.2 hPa East 9.7 km/h 24.1 km/h 76 % 0.0 mm
12:22 5.5 °C 1.6 °C 1018.2 hPa ENE 4.8 km/h 24.1 km/h 76 % 0.0 mm
12:32 5.7 °C 1.4 °C 1018.2 hPa NE 9.7 km/h 22.5 km/h 74 % 0.0 mm
12:42 6.1 °C 2.2 °C 1018.2 hPa NNE 16.1 km/h 20.9 km/h 76 % 0.0 mm
12:47 6.2 °C 1.7 °C 1018.2 hPa NE 8.0 km/h 20.9 km/h 73 % 0.0 mm
12:52 6.1 °C 1.6 °C 1018.2 hPa NNE 16.1 km/h 20.9 km/h 73 % 0.0 mm
12:57 6.1 °C 2.0 °C 1018.2 hPa East 3.2 km/h 22.5 km/h 75 % 0.0 mm
13:02 6.1 °C 1.8 °C 1018.2 hPa NE 12.9 km/h 22.5 km/h 74 % 0.0 mm
13:07 5.8 °C 1.5 °C 1018.2 hPa ESE 4.8 km/h 24.1 km/h 74 % 0.0 mm
13:12 5.7 °C 1.4 °C 1018.5 hPa NE 9.7 km/h 24.1 km/h 74 % 0.0 mm
13:17 5.6 °C 1.5 °C 1018.5 hPa NE 14.5 km/h 24.1 km/h 75 % 0.0 mm
13:22 5.7 °C 1.8 °C 1018.2 hPa East 6.4 km/h 24.1 km/h 76 % 0.0 mm
13:32 6.3 °C 2.0 °C 1018.5 hPa ESE 6.4 km/h 19.3 km/h 74 % 0.0 mm
13:37 6.4 °C 2.1 °C 1018.5 hPa NE 14.5 km/h 22.5 km/h 74 % 0.0 mm
13:42 6.4 °C 2.1 °C 1018.5 hPa ENE 6.4 km/h 22.5 km/h 74 % 0.0 mm
13:47 6.2 °C 1.9 °C 1018.5 hPa NE 8.0 km/h 22.5 km/h 74 % 0.0 mm
13:52 6.0 °C 1.5 °C 1018.5 hPa NNE 12.9 km/h 19.3 km/h 73 % 0.0 mm
13:57 6.1 °C 2.0 °C 1018.5 hPa SSE 4.8 km/h 17.7 km/h 75 % 0.0 mm
14:02 6.1 °C 2.0 °C 1018.5 hPa NE 8.0 km/h 17.7 km/h 75 % 0.0 mm
14:07 6.6 °C 2.7 °C 1018.5 hPa East 11.3 km/h 17.7 km/h 76 % 0.0 mm
14:12 6.8 °C 2.3 °C 1018.5 hPa NE 6.4 km/h 17.7 km/h 73 % 0.0 mm
14:17 6.8 °C 2.5 °C 1018.5 hPa NNE 9.7 km/h 19.3 km/h 74 % 0.0 mm
14:22 6.9 °C 2.4 °C 1018.8 hPa ENE 14.5 km/h 19.3 km/h 73 % 0.0 mm
14:27 6.4 °C 1.9 °C 1018.5 hPa East 12.9 km/h 17.7 km/h 73 % 0.0 mm
14:32 6.7 °C 2.2 °C 1018.8 hPa East 6.4 km/h 17.7 km/h 73 % 0.0 mm
14:37 6.8 °C 2.3 °C 1018.8 hPa ENE 16.1 km/h 22.5 km/h 73 % 0.0 mm
14:42 6.7 °C 2.0 °C 1018.5 hPa ENE 9.7 km/h 22.5 km/h 72 % 0.0 mm
14:47 6.9 °C 2.4 °C 1018.5 hPa NE 12.9 km/h 27.4 km/h 73 % 0.0 mm
14:52 7.1 °C 2.4 °C 1018.5 hPa ENE 12.9 km/h 27.4 km/h 72 % 0.0 mm
14:57 7.1 °C 2.0 °C 1018.8 hPa ENE 11.3 km/h 29.0 km/h 70 % 0.0 mm
15:02 7.2 °C 2.1 °C 1018.8 hPa SE 8.0 km/h 29.0 km/h 70 % 0.0 mm
15:12 7.3 °C 1.2 °C 1018.8 hPa NE 14.5 km/h 29.0 km/h 65 % 0.0 mm
15:17 7.4 °C 1.9 °C 1018.8 hPa ENE 8.0 km/h 25.7 km/h 68 % 0.0 mm
15:22 7.4 °C 1.3 °C 1018.8 hPa NE 11.3 km/h 25.7 km/h 65 % 0.0 mm
15:32 7.6 °C 1.2 °C 1018.8 hPa NE 6.4 km/h 25.7 km/h 64 % 0.0 mm
15:37 7.5 °C 0.9 °C 1018.8 hPa ENE 11.3 km/h 20.9 km/h 63 % 0.0 mm
15:42 7.6 °C 1.2 °C 1018.8 hPa NE 6.4 km/h 20.9 km/h 64 % 0.0 mm
15:47 7.6 °C 1.0 °C 1019.2 hPa ENE 17.7 km/h 20.9 km/h 63 % 0.0 mm
15:52 7.6 °C 1.2 °C 1019.2 hPa ENE 17.7 km/h 20.9 km/h 64 % 0.0 mm
15:57 7.7 °C 0.9 °C 1019.2 hPa NNE 16.1 km/h 19.3 km/h 62 % 0.0 mm
16:02 7.6 °C 0.8 °C 1019.2 hPa NE 8.0 km/h 19.3 km/h 62 % 0.0 mm
16:07 7.7 °C 1.1 °C 1019.2 hPa ENE 8.0 km/h 25.7 km/h 63 % 0.0 mm
16:12 7.7 °C 1.1 °C 1019.2 hPa ENE 8.0 km/h 25.7 km/h 63 % 0.0 mm
16:17 7.8 °C 1.2 °C 1019.2 hPa NE 14.5 km/h 25.7 km/h 63 % 0.0 mm
16:22 7.8 °C 1.0 °C 1019.5 hPa NE 9.7 km/h 19.3 km/h 62 % 0.0 mm
16:27 7.8 °C 0.7 °C 1019.5 hPa North 11.3 km/h 17.7 km/h 61 % 0.0 mm
16:32 7.7 °C 0.7 °C 1019.5 hPa NE 9.7 km/h 17.7 km/h 61 % 0.0 mm
16:37 7.6 °C 0.1 °C 1019.5 hPa NE 8.0 km/h 22.5 km/h 59 % 0.0 mm
16:42 7.5 °C -0.2 °C 1019.5 hPa NE 9.7 km/h 22.5 km/h 58 % 0.0 mm
16:47 7.4 °C -0.6 °C 1019.5 hPa ENE 8.0 km/h 22.5 km/h 57 % 0.0 mm
16:57 7.4 °C 0.4 °C 1019.9 hPa North 14.5 km/h 24.1 km/h 61 % 0.0 mm
17:02 7.3 °C -0.2 °C 1019.9 hPa NE 16.1 km/h 24.1 km/h 59 % 0.0 mm
17:12 7.0 °C -0.2 °C 1019.9 hPa NE 9.7 km/h 22.5 km/h 60 % 0.0 mm
17:17 6.9 °C -0.1 °C 1019.9 hPa NE 11.3 km/h 22.5 km/h 61 % 0.0 mm
17:22 6.8 °C -0.2 °C 1020.2 hPa ENE 8.0 km/h 22.5 km/h 61 % 0.0 mm
17:27 6.8 °C -0.4 °C 1020.2 hPa ENE 11.3 km/h 20.9 km/h 60 % 0.0 mm
17:32 6.7 °C -0.3 °C 1020.2 hPa ENE 8.0 km/h 20.9 km/h 61 % 0.0 mm
17:37 6.5 °C -0.5 °C 1020.2 hPa NE 4.8 km/h 16.1 km/h 61 % 0.0 mm
17:42 6.3 °C -0.4 °C 1020.2 hPa ENE 8.0 km/h 16.1 km/h 62 % 0.0 mm
17:52 5.9 °C -0.6 °C 1020.5 hPa ENE 8.0 km/h 17.7 km/h 63 % 0.0 mm
17:57 5.7 °C -0.8 °C 1020.5 hPa ENE 6.4 km/h 17.7 km/h 63 % 0.0 mm
18:02 5.4 °C -1.1 °C 1020.9 hPa ENE 12.9 km/h 17.7 km/h 63 % 0.0 mm
18:12 5.0 °C -1.0 °C 1020.9 hPa ENE 3.2 km/h 16.1 km/h 65 % 0.0 mm
18:17 4.9 °C -1.3 °C 1020.9 hPa ENE 4.8 km/h 16.1 km/h 64 % 0.0 mm
18:22 4.7 °C -1.3 °C 1021.2 hPa NE 4.8 km/h 16.1 km/h 65 % 0.0 mm
18:32 4.3 °C -1.1 °C 1021.6 hPa ENE 3.2 km/h 11.3 km/h 68 % 0.0 mm
18:42 3.8 °C -1.4 °C 1021.6 hPa ENE 1.6 km/h 11.3 km/h 69 % 0.0 mm
18:47 3.6 °C -1.4 °C 1021.9 hPa NE 4.8 km/h 8.0 km/h 70 % 0.0 mm
18:52 3.4 °C -1.6 °C 1021.9 hPa ENE 3.2 km/h 8.0 km/h 70 % 0.0 mm
18:57 3.3 °C -1.5 °C 1021.9 hPa ESE 1.6 km/h 8.0 km/h 71 % 0.0 mm
19:02 3.1 °C -1.5 °C 1022.2 hPa NE 4.8 km/h 8.0 km/h 72 % 0.0 mm
19:12 2.8 °C -1.6 °C 1022.2 hPa Calm   8.0 km/h 73 % 0.0 mm
19:17 2.6 °C -1.8 °C 1022.2 hPa East 1.6 km/h 6.4 km/h 73 % 0.0 mm
19:22 2.6 °C -1.6 °C 1022.6 hPa Calm   6.4 km/h 74 % 0.0 mm
19:27 2.6 °C -1.8 °C 1022.6 hPa Calm   6.4 km/h 73 % 0.0 mm
19:32 2.5 °C -1.7 °C 1022.6 hPa ENE 3.2 km/h 6.4 km/h 74 % 0.0 mm
19:37 2.5 °C -1.7 °C 1022.6 hPa NE 4.8 km/h 6.4 km/h 74 % 0.0 mm
19:42 2.5 °C -1.7 °C 1022.9 hPa NE 3.2 km/h 6.4 km/h 74 % 0.0 mm
19:47 2.3 °C -1.7 °C 1022.9 hPa Calm   6.4 km/h 75 % 0.0 mm
19:52 2.1 °C -1.9 °C 1022.9 hPa Calm   6.4 km/h 75 % 0.0 mm
19:57 1.9 °C -1.9 °C 1023.2 hPa Calm   4.8 km/h 76 % 0.0 mm
20:02 1.6 °C -2.0 °C 1023.2 hPa Calm   3.2 km/h 77 % 0.0 mm
20:07 1.3 °C -2.1 °C 1023.2 hPa Calm   3.2 km/h 78 % 0.0 mm
20:12 1.2 °C -2.0 °C 1023.2 hPa Calm   3.2 km/h 79 % 0.0 mm
20:17 1.1 °C -2.1 °C 1023.6 hPa ENE 1.6 km/h 1.6 km/h 79 % 0.0 mm
20:22 1.3 °C -1.9 °C 1023.6 hPa Calm   1.6 km/h 79 % 0.0 mm
20:27 1.1 °C -2.1 °C 1023.6 hPa Calm   1.6 km/h 79 % 0.0 mm
20:32 1.1 °C -2.1 °C 1023.6 hPa Calm   1.6 km/h 79 % 0.0 mm
20:37 1.1 °C -2.1 °C 1023.2 hPa Calm   1.6 km/h 79 % 0.0 mm
20:42 0.9 °C -2.3 °C 1023.6 hPa Calm   1.6 km/h 79 % 0.0 mm
20:47 0.9 °C -2.2 °C 1023.6 hPa Calm   1.6 km/h 80 % 0.0 mm
20:52 0.9 °C -2.3 °C 1023.6 hPa Calm   1.6 km/h 79 % 0.0 mm
20:57 1.1 °C -2.1 °C 1023.6 hPa Calm   1.6 km/h 79 % 0.0 mm
21:02 0.8 °C -2.3 °C 1023.6 hPa Calm   1.6 km/h 80 % 0.0 mm
21:07 0.8 °C -2.3 °C 1023.6 hPa Calm   1.6 km/h 80 % 0.0 mm
21:12 0.9 °C -2.2 °C 1023.6 hPa Calm   1.6 km/h 80 % 0.0 mm
21:17 1.2 °C -2.0 °C 1023.9 hPa Calm   3.2 km/h 79 % 0.0 mm
21:22 1.3 °C -2.1 °C 1023.9 hPa Calm   3.2 km/h 78 % 0.0 mm
21:27 1.3 °C -2.3 °C 1023.9 hPa Calm   3.2 km/h 77 % 0.0 mm
21:32 1.2 °C -2.2 °C 1023.9 hPa Calm   3.2 km/h 78 % 0.0 mm
21:37 1.1 °C -2.3 °C 1023.9 hPa Calm   1.6 km/h 78 % 0.0 mm
21:42 0.9 °C -2.2 °C 1023.9 hPa Calm   1.6 km/h 80 % 0.0 mm
21:47 0.8 °C -2.3 °C 1023.9 hPa Calm   1.6 km/h 80 % 0.0 mm
21:52 0.8 °C -2.3 °C 1023.9 hPa Calm   1.6 km/h 80 % 0.0 mm
21:57 0.8 °C -2.4 °C 1023.9 hPa Calm   4.8 km/h 79 % 0.0 mm
22:12 0.2 °C -2.7 °C 1023.9 hPa Calm   4.8 km/h 81 % 0.0 mm
22:17 0.1 °C -2.6 °C 1023.9 hPa ENE 1.6 km/h 1.6 km/h 82 % 0.0 mm
22:22 0.1 °C -2.6 °C 1023.6 hPa Calm   1.6 km/h 82 % 0.0 mm
22:27 0.0 °C -2.7 °C 1023.6 hPa Calm   1.6 km/h 82 % 0.0 mm
22:32 -0.1 °C -2.8 °C 1023.6 hPa Calm   1.6 km/h 82 % 0.0 mm
22:37 -0.3 °C -3.0 °C 1023.6 hPa Calm   1.6 km/h 82 % 0.0 mm
22:42 -0.3 °C -3.0 °C 1023.6 hPa Calm   1.6 km/h 82 % 0.0 mm
22:47 -0.4 °C -2.9 °C 1023.6 hPa Calm     83 % 0.0 mm
22:52 -0.3 °C -2.8 °C 1023.9 hPa Calm     83 % 0.0 mm
22:57 -0.2 °C -2.9 °C 1023.9 hPa Calm     82 % 0.0 mm
23:02 0.0 °C -2.9 °C 1024.3 hPa Calm   1.6 km/h 81 % 0.0 mm
23:07 0.1 °C -2.8 °C 1024.3 hPa Calm   1.6 km/h 81 % 0.0 mm
23:12 0.2 °C -2.8 °C 1024.3 hPa Calm   1.6 km/h 80 % 0.0 mm
23:17 0.4 °C -2.6 °C 1024.3 hPa Calm   3.2 km/h 80 % 0.0 mm
23:22 0.5 °C -2.7 °C 1024.3 hPa Calm   3.2 km/h 79 % 0.0 mm
23:32 0.6 °C -2.6 °C 1024.3 hPa Calm   3.2 km/h 79 % 0.0 mm
23:37 0.7 °C -2.5 °C 1024.3 hPa Calm   6.4 km/h 79 % 0.0 mm
23:42 0.7 °C -2.7 °C 1024.3 hPa Calm   6.4 km/h 78 % 0.0 mm
23:47 0.6 °C -2.8 °C 1024.6 hPa Calm   6.4 km/h 78 % 0.0 mm
23:52 0.6 °C -2.6 °C 1024.3 hPa Calm   6.4 km/h 79 % 0.0 mm
23:57 0.5 °C -2.7 °C 1024.3 hPa Calm   3.2 km/h 79 % 0.0 mm
Meteo18
Compliments of Weather Underground - 4 mb

Script developed by  Jim McMurry - jmcmurry@mwt.net Adapted for the template by  Wim van der Kuil - Leuven-Template.eu

You find our weather info also at:

European Weather Network

Weather Underground

Equipment we use:

Weather-station
Davis Vue

Weather-program
Meteohub

Weather-server
Raspberry PI 2 B+

Provider
1 and 1

Davis Vue

Meteohub

Raspberry PI 2 B+

1 and 1